Location: La Pernelle
(49.6188°N, 1.2999°W)
Time: 13:43:47
(UTC+00:00)

ATLAS CENTAUR R/B - Pass Details

Date: 12 June 2021
Orbit: 472 x 671 km, 64.6° (Epoch: 13 June)

Event Time Altitude Azimuth Distance (km) Brightness Sun altitude
Rises 23:06:14 0° 320° (NW) 2,759 6.1 -16.0°
Reaches altitude 10° 23:08:24 10° 321° (NW) 1,892 5.1 -16.1°
Maximum altitude 23:12:41 82° 49° (NE) 614 1.5 -16.2°
Enters shadow 23:15:13 26° 136° (SE) 1,234 2.6 -16.3°
